Flag for U.S.A. Weather past 2 weeks in Allentown, Pennsylvania, U.S.A.

Now
40 °F

Mostly cloudy.


Feels Like: 34 °F
Forecast: 25 / 39 °F
Wind: 8 mph from Northeast

Location: Lehigh Valley International Airport

Current Time: Dec 22, 2014 at 4:37:51 PM

Latest Report: Dec 22, 2014 at 3:51 PM


Visibility: 7 mi

Pressure: 30.22 "Hg

Humidity: 73%

Dew point: 32 °F

Location of AllentownLocation

Historic Weather in Allentown — Graph

°F

Allentown temperature yesterday

Maximum temperature yesterday: 35 °F (at 1:51 PM)
Minimum temperature yesterday: 26 °F (at 9:51 PM)
Average temperature yesterday: 31 °F

Past Weeks' High & Low Weather Summary

 TemperatureHumidityPressure
High50 °F (Dec 17, 11:51 AM)93% (Dec 16, 6:51 PM)30.68 "Hg (Dec 16, 6:51 PM)
Low20 °F (Dec 8, 6:51 AM)29% (Dec 7, 2:51 PM)29.69 "Hg (Dec 10, 2:51 PM)
Average36 °F68%30.07 "Hg
* Reported Dec 7 2:51 PM — Dec 22 2:51 PM, Allentown, Weather by CustomWeather, © 2014

Note: Actual official high and low records may vary slightly from our data, if they occured in-between our weather recording intervals... More about our weather records

Advertising

Allentown weather history for previous 24 hours

 ConditionsComfort  
Time TempWeatherWind HumidityBarometerVisibility
2:51 PM
Dec 22
41 °FOvercast.6 mph70%30.22 "Hg8 mi
1:51 PM41 °FMore clouds than sun.3 mph67%30.22 "Hg9 mi
12:51 PM39 °FOvercast.6 mph70%30.25 "Hg9 mi
11:51 AM38 °FOvercast.5 mph73%30.28 "Hg9 mi
10:51 AM36 °FOvercast.5 mph75%30.33 "Hg8 mi
10:00 AM36 °FMostly cloudy.5 mph75%30.32 "Hg8 mi
8:51 AM34 °FOvercast.5 mph76%30.32 "Hg9 mi
7:51 AM32 °FOvercast.No wind79%30.33 "Hg9 mi
6:51 AM31 °FOvercast.No wind82%30.32 "Hg10 mi
5:51 AM31 °FOvercast.No wind79%30.31 "Hg10 mi
4:51 AM30 °FOvercast.No wind79%30.31 "Hg10 mi
3:51 AM31 °FOvercast.No wind76%30.33 "Hg10 mi
2:51 AM30 °FOvercast.No wind75%30.34 "Hg10 mi
1:51 AM30 °FOvercast.No wind72%30.33 "Hg10 mi
12:51 AM30 °FOvercast.No wind72%30.33 "Hg10 mi
11:51 PM
Dec 21
29 °FOvercast.No wind75%30.34 "Hg10 mi
10:51 PM26 °FOvercast.3 mph81%30.34 "Hg10 mi
9:51 PM26 °FOvercast.No wind77%30.33 "Hg10 mi
8:51 PM27 °FPassing clouds.3 mph72%30.34 "Hg10 mi
7:51 PM28 °FClear.6 mph69%30.35 "Hg10 mi
6:51 PM28 °FClear.No wind72%30.34 "Hg10 mi
5:51 PM30 °FClear.5 mph66%30.34 "Hg10 mi
4:51 PM31 °FClear.3 mph64%30.31 "Hg10 mi
Weather by CustomWeather, © 2014

See weather overviewHow to use our weather pages